This demonstration page uses our WeatherBlox Daily Observations layout. Learn more.

Left ArrowRight Arrow

Hourly Observations for September 2, 2018

Temp ( °F °C ) Dew Point ( °F °C ) Humidity (%) Winds ( mph kmh ) Pressure ( in mb ) Visibility ( mi km ) Precip ( " mm )
12:15 am 00:15 Cloudy 68 20 68 20 100 100 ENE 3 6 30.24 1024 7 11 0.00 0.00
12:35 am 00:35 Cloudy 68 20 68 20 100 100 ENE 3 6 30.24 1024 7 11 0.00 0.00
12:55 am 00:55 Cloudy 68 20 68 20 100 100 E 3 6 30.24 1024 7 11 0.00 0.00
1:15 am 01:15 Cloudy with Mist and Fog 68 20 68 20 100 100 Calm 30.24 1024 5 8 0.00 0.00
1:35 am 01:35 Cloudy with Mist and Fog 68 20 68 20 100 100 Calm 30.24 1024 5 8 0.00 0.00
1:55 am 01:55 Cloudy with Mist and Fog 68 20 68 20 100 100 ENE 3 6 30.24 1024 5 8 0.00 0.00
2:15 am 02:15 Cloudy 68 20 68 20 100 100 SE 3 6 30.24 1024 7 11 0.00 0.00
2:35 am 02:35 Cloudy 68 20 68 20 100 100 Calm 30.24 1024 7 11 0.00 0.00
2:55 am 02:55 Cloudy 68 20 68 20 100 100 S 5 7 30.24 1024 7 11 0.00 0.00
3:15 am 03:15 Cloudy 68 20 68 20 100 100 SSW 7 11 30.24 1024 10 16 0.00 0.00
3:35 am 03:35 Mostly Cloudy 68 20 68 20 100 100 Calm 30.24 1024 7 11 0.00 0.00
3:55 am 03:55 Clear 68 20 68 20 100 100 WSW 3 6 30.24 1024 7 11 0.00 0.00
4:15 am 04:15 Clear 68 20 68 20 100 100 Calm 30.24 1024 7 11 0.00 0.00
4:55 am 04:55 Mostly Cloudy 66 19 66 19 100 100 Calm 30.24 1024 7 11 0.00 0.00
5:15 am 05:15 Partly Cloudy 68 20 68 20 100 100 SE 3 6 30.24 1024 10 16 0.00 0.00
5:35 am 05:35 Clear 68 20 68 20 100 100 Calm 30.24 1024 10 16 0.00 0.00
5:55 am 05:55 Partly Cloudy 66 19 66 19 100 100 Calm 30.24 1024 10 16 0.00 0.00
6:15 am 06:15 Partly Cloudy with Mist and Fog 64 18 64 18 100 100 Calm 30.24 1024 5 8 0.00 0.00
6:35 am 06:35 Mostly Cloudy 66 19 66 19 100 100 Calm 30.27 1025 7 11 0.00 0.00
6:55 am 06:55 Mostly Cloudy with Mist and Fog 64 18 64 18 100 100 Calm 30.27 1025 5 8 0.00 0.00
7:15 am 07:15 Partly Cloudy 66 19 66 19 100 100 Calm 30.27 1025 7 11 0.00 0.00
7:35 am 07:35 Cloudy with Mist and Fog 66 19 66 19 100 100 Calm 30.27 1025 1 2 0.00 0.00
7:55 am 07:55 Cloudy with Mist and Fog 66 19 66 19 100 100 Calm 30.27 1025 4 6 0.00 0.00
8:15 am 08:15 Cloudy 68 20 68 20 100 100 Calm 30.30 1026 10 16 0.00 0.00
8:55 am 08:55 Cloudy 68 20 68 20 100 100 Calm 30.30 1026 10 16 0.00 0.00
9:15 am 09:15 Cloudy 70 21 68 20 94 94 Calm 30.30 1026 10 16 0.00 0.00
9:35 am 09:35 Cloudy 70 21 68 20 94 94 Calm 30.30 1026 10 16 0.00 0.00
9:55 am 09:55 Cloudy 70 21 68 20 94 94 Calm 30.30 1026 10 16 0.00 0.00
10:15 am 10:15 Cloudy 72 22 70 21 94 94 Calm 30.30 1026 10 16 0.00 0.00
10:35 am 10:35 Cloudy 72 22 70 21 94 94 Calm 30.30 1026 10 16 0.00 0.00
10:55 am 10:55 Cloudy 75 24 72 22 89 89 Calm 30.30 1026 10 16 0.00 0.00
11:15 am 11:15 Mostly Cloudy 77 25 70 21 79 79 Calm 30.30 1026 10 16 0.00 0.00
11:35 am 11:35 Partly Cloudy 77 25 70 21 79 79 Calm 30.30 1026 10 16 0.00 0.00
11:55 am 11:55 Partly Cloudy 79 26 72 22 79 79 Calm 30.27 1025 10 16 0.00 0.00
12:15 pm 12:15 Partly Cloudy 79 26 70 21 74 74 Calm 30.27 1025 10 16 0.00 0.00
12:35 pm 12:35 Mostly Cloudy 79 26 72 22 79 79 Calm 30.27 1025 10 16 0.00 0.00
12:55 pm 12:55 Partly Cloudy 79 26 72 22 79 79 Calm 30.27 1025 10 16 0.00 0.00
1:15 pm 13:15 Partly Cloudy 81 27 72 22 74 74 SE 3 6 30.27 1025 10 16 0.00 0.00
1:35 pm 13:35 Partly Cloudy 82 28 72 22 70 70 Calm 30.24 1024 10 16 0.00 0.00
1:55 pm 13:55 Sunny 82 28 72 22 70 70 Calm 30.24 1024 10 16 0.00 0.00
2:15 pm 14:15 Sunny 84 29 73 23 70 70 SW 3 6 30.24 1024 10 16 0.00 0.00
2:35 pm 14:35 Sunny 84 29 72 22 66 66 Calm 30.24 1024 10 16 0.00 0.00
2:55 pm 14:55 Sunny 86 30 73 23 66 66 Calm 30.24 1024 10 16 0.00 0.00
3:15 pm 15:15 Sunny 86 30 73 23 66 66 Calm 30.24 1024 10 16 0.00 0.00
3:35 pm 15:35 Sunny 88 31 73 23 62 62 SE 3 6 30.21 1023 10 16 0.00 0.00
3:55 pm 15:55 Sunny 88 31 73 23 62 62 NNW 3 6 30.21 1023 10 16 0.00 0.00
4:15 pm 16:15 Sunny 88 31 73 23 62 62 Calm 30.21 1023 10 16 0.00 0.00
4:35 pm 16:35 Sunny 88 31 73 23 62 62 Calm 30.21 1023 10 16 0.00 0.00
4:55 pm 16:55 Mostly Cloudy 88 31 73 23 62 62 SE 5 7 30.21 1023 10 16 0.00 0.00
5:15 pm 17:15 Partly Cloudy 88 31 73 23 62 62 ENE 3 6 30.21 1023 10 16 0.00 0.00
5:35 pm 17:35 Sunny 88 31 73 23 62 62 Calm 30.21 1023 10 16 0.00 0.00
5:55 pm 17:55 Sunny 88 31 73 23 62 62 ENE 3 6 30.21 1023 10 16 0.00 0.00
6:15 pm 18:15 Partly Cloudy 88 31 73 23 62 62 Calm 30.21 1023 10 16 0.00 0.00
6:35 pm 18:35 Mostly Cloudy 88 31 73 23 62 62 Calm 30.21 1023 10 16 0.00 0.00
6:55 pm 18:55 Partly Cloudy 86 30 75 24 70 70 Calm 30.21 1023 10 16 0.00 0.00
7:15 pm 19:15 Sunny 86 30 73 23 66 66 Calm 30.21 1023 10 16 0.00 0.00
7:35 pm 19:35 Sunny 86 30 73 23 66 66 Calm 30.21 1023 10 16 0.00 0.00
7:55 pm 19:55 Clear 82 28 75 24 79 79 Calm 30.21 1023 10 16 0.00 0.00
8:15 pm 20:15 Clear 82 28 75 24 79 79 Calm 30.21 1023 10 16 0.00 0.00
8:35 pm 20:35 Clear 79 26 77 25 94 94 Calm 30.21 1023 10 16 0.00 0.00
8:55 pm 20:55 Clear 77 25 77 25 100 100 Calm 30.24 1024 10 16 0.00 0.00
9:15 pm 21:15 Clear 77 25 75 24 94 94 Calm 30.21 1023 10 16 0.00 0.00
9:35 pm 21:35 Clear 77 25 75 24 94 94 Calm 30.24 1024 10 16 0.00 0.00
9:55 pm 21:55 Clear 77 25 75 24 94 94 Calm 30.24 1024 10 16 0.00 0.00
10:15 pm 22:15 Clear 77 25 73 23 89 89 Calm 30.24 1024 10 16 0.00 0.00
10:35 pm 22:35 Clear 77 25 73 23 89 89 Calm 30.24 1024 10 16 0.00 0.00
10:55 pm 22:55 Clear 73 23 73 23 100 100 Calm 30.24 1024 10 16 0.00 0.00
11:15 pm 23:15 Clear 72 22 72 22 100 100 Calm 30.24 1024 10 16 0.00 0.00
11:35 pm 23:35 Clear 72 22 72 22 100 100 Calm 30.24 1024 10 16 0.00 0.00
11:55 pm 23:55 Clear 72 22 72 22 100 100 Calm 30.24 1024 10 16 0.00 0.00

Powered by AerisWeather